Wind_Speed
6 5 7 5 2 4 3 6 3 3 3 2 2 9 13 7 7 5 20 20 18 18 21 23 21 18 16 14 14 13 12 11 11 10 9 8 8 8 7 6 4 3 2 3 3 3 4 4 5
7 6 6 2 3 2 5 4 7 6 3 14 2 8 4 5 7 5 23 24 20 16 21 23 20 19 17 16 16 15 14 12 11 10 10 8 7 6 6 5 4 3 2 2 1 1 2 2 2
7 9 1 3 4 6 5 4 5 4 15 9 4 8 4 5 13 22 23 22 18 19 21 19 19 19 19 19 18 16 16 15 12 10 9 8 7 6 5 5 4 3 1 1 1 0 2 3 3
8 5 1 1 7 6 6 3 2 8 19 1 10 4 4 6 12 21 22 21 16 16 20 19 17 19 20 20 19 18 17 16 14 12 11 9 9 7 5 4 4 3 1 0 0 1 2 4 5
10 3 2 3 6 5 5 12 10 7 5 10 2 4 2 6 16 20 20 18 12 12 14 17 17 20 22 22 22 21 20 19 18 16 14 12 10 8 5 2 2 2 1 1 1 1 2 4 7
5 2 2 6 6 4 6 13 7 4 6 7 6 5 2 11 11 16 15 15 12 10 13 14 16 24 25 25 25 24 24 23 22 20 17 15 13 10 7 5 2 1 1 2 2 3 3 5 7
5 4 4 3 4 5 5 8 6 6 2 7 2 3 2 14 11 15 13 13 12 13 13 16 19 24 28 29 29 28 28 26 25 23 21 19 17 14 11 8 5 3 2 3 3 3 4 6 8
6 4 3 5 5 6 5 4 7 4 1 8 9 1 3 9 9 10 13 15 13 14 16 19 20 24 28 31 33 32 31 29 28 26 25 24 21 18 15 12 8 6 5 5 3 3 4 5 7
7 2 5 7 8 5 3 1 10 3 4 5 2 8 9 3 3 10 17 17 18 20 20 20 25 28 30 33 35 35 34 33 31 30 30 28 27 23 20 16 12 9 8 8 6 5 5 5 5
7 5 9 6 7 4 5 3 9 4 10 6 12 6 9 5 6 14 21 26 24 25 25 26 26 28 32 35 37 38 38 37 37 36 35 33 31 28 23 19 16 13 10 11 10 9 8 6 6
9 11 11 7 16 18 10 12 13 4 5 10 12 22 14 15 24 19 20 27 22 23 28 29 27 28 32 36 37 41 42 42 41 40 39 37 34 31 28 24 21 17 13 14 13 12 10 7 7
5 17 19 11 14 8 6 14 16 23 14 27 30 29 33 30 32 27 24 16 20 22 23 23 28 29 31 37 39 41 44 45 45 45 43 41 39 35 30 28 24 20 17 16 16 14 11 9 8
14 7 18 27 18 18 15 19 15 31 32 36 35 35 38 37 33 29 24 29 27 23 22 23 28 27 30 37 41 41 42 45 46 47 47 45 42 38 34 30 26 23 20 19 18 16 14 11 11
2 14 15 15 15 13 10 18 12 15 23 26 28 36 38 38 37 35 32 30 28 28 26 27 29 29 31 31 37 39 42 44 45 48 49 48 47 41 34 32 30 26 23 20 17 16 15 15 14
10 6 3 8 10 10 15 20 28 34 28 32 38 41 40 39 37 36 33 32 27 29 28 30 36 35 33 32 33 39 39 36 39 42 47 49 49 41 34 33 31 27 23 20 18 17 17 17 16
4 5 16 14 8 7 14 29 20 22 26 33 36 36 35 35 32 31 30 32 34 36 38 41 41 36 31 30 34 36 35 33 35 40 44 45 46 39 34 34 31 24 21 21 18 18 18 17 18
4 16 9 5 8 10 13 31 7 16 18 24 28 32 35 39 38 38 39 35 33 38 39 37 37 34 29 27 31 33 30 32 34 40 41 41 35 30 30 30 26 21 21 19 17 17 17 17 18
9 5 2 5 5 15 14 32 14 21 23 25 27 36 39 40 38 39 39 40 42 37 40 34 33 33 31 29 30 31 34 36 36 39 37 34 24 24 23 25 25 23 20 17 15 14 16 18 17
4 2 1 3 4 4 17 21 16 13 21 22 30 34 38 42 45 45 43 39 33 32 31 25 27 26 26 27 30 33 35 36 36 35 28 24 20 19 21 23 22 14 16 15 13 15 18 18 18
6 1 3 5 8 4 7 12 9 8 14 22 29 30 33 39 43 41 39 33 35 33 28 27 26 25 25 29 31 32 32 36 35 24 19 17 19 20 17 15 18 16 16 15 15 16 18 18 17
4 9 3 6 8 12 8 18 12 8 16 27 31 33 38 37 40 39 35 33 32 35 33 32 29 32 30 30 30 31 31 27 23 22 18 20 18 16 15 16 13 14 15 13 14 16 17 15 14
5 3 1 2 3 8 2 9 15 15 18 14 19 29 32 37 37 38 35 36 37 35 35 30 27 27 27 27 29 30 27 24 21 18 17 20 18 14 13 15 13 14 11 14 15 16 15 12 11
9 8 8 7 6 3 3 5 13 5 11 12 16 31 36 45 44 44 43 43 39 37 36 29 23 25 26 25 24 21 19 16 14 16 19 19 15 18 15 16 13 12 14 15 16 13 11 11 11
6 6 4 1 2 7 7 6 21 9 12 7 15 25 32 31 30 29 27 22 25 26 28 28 24 24 22 19 15 15 12 13 18 21 23 15 20 19 17 13 11 13 15 14 11 10 11 10 11
5 5 2 1 2 12 12 9 24 4 6 4 9 15 18 18 20 23 21 23 23 24 19 13 14 16 15 14 13 12 10 11 16 20 18 14 17 15 12 10 12 13 12 10 9 8 7 7 7
7 7 5 6 6 5 6 12 8 11 13 18 14 18 24 27 23 20 19 20 15 9 10 14 17 17 17 16 17 15 13 13 14 13 13 11 11 11 11 10 11 11 10 9 8 8 6 7 7
4 4 7 3 3 1 5 7 8 16 10 8 9 19 24 25 21 20 17 9 7 13 16 17 18 19 19 20 20 18 16 15 14 13 12 12 12 10 9 9 9 7 6 6 6 7 8 8 9
4 4 3 1 4 5 6 6 6 6 2 4 8 11 27 25 12 10 10 12 17 19 19 19 19 20 21 20 19 19 18 16 14 14 15 13 10 8 7 8 7 5 4 4 5 9 10 13 12
1 1 2 2 5 4 2 5 6 15 4 8 10 20 28 11 13 14 17 21 21 20 21 21 20 22 22 20 20 19 17 16 15 14 12 9 8 7 10 8 7 4 0 4 5 7 9 11 10
2 3 1 4 8 4 3 6 6 6 7 8 13 23 15 4 15 21 25 25 24 23 23 23 23 22 21 20 17 16 15 12 11 10 9 9 10 11 11 8 4 1 4 5 7 9 11 14 13
Wind_Direction
204 190 163 168 77 72 250 257 259 290 281 309 247 166 179 168 172 207 162 166 173 185 188 188 188 191 194 189 187 187 183 175 168 163 155 148 145 132 115 105 107 125 163 203 219 243 247 246 249
189 173 161 182 112 141 248 233 230 217 309 333 294 158 157 188 205 170 161 172 182 180 190 191 189 196 201 199 197 196 197 194 186 183 173 165 153 140 128 108 85 82 114 139 170 232 274 274 267
180 167 194 166 175 193 222 225 238 263 300 281 264 219 212 180 187 163 170 171 182 193 196 191 193 200 207 208 204 206 206 208 204 199 193 180 171 162 147 120 87 78 77 97 129 232 278 286 295
163 167 266 167 227 245 206 237 325 312 319 321 213 246 200 164 176 168 172 168 171 187 198 202 203 211 212 213 212 216 217 216 217 213 211 201 192 180 164 135 104 76 52 154 55 322 289 282 286
168 159 173 255 264 265 253 259 278 278 275 275 190 229 218 166 159 167 174 178 170 189 197 205 216 223 221 221 219 222 225 223 223 220 216 212 206 201 190 176 113 74 22 337 300 290 285 284 276
152 154 121 235 248 262 269 266 254 261 266 286 166 145 186 166 162 166 178 180 189 209 205 214 226 227 225 226 224 226 229 228 227 225 225 222 219 215 212 218 222 240 332 324 322 318 308 292 280
166 122 214 200 245 266 233 264 212 210 193 38 151 121 188 177 185 184 191 198 206 218 231 231 229 231 231 232 229 228 231 231 230 230 231 230 228 224 222 221 230 252 279 302 303 314 331 314 298
210 133 215 215 204 256 251 267 219 211 154 0 20 82 151 159 184 207 212 210 223 237 240 240 242 241 238 237 234 230 232 234 234 235 235 235 232 228 228 227 231 248 262 271 260 287 310 323 317
183 130 221 215 176 245 218 287 234 283 300 355 46 326 346 101 212 269 237 231 239 236 245 248 246 244 244 242 241 234 234 237 237 238 238 235 234 231 233 234 234 245 257 263 254 262 280 311 320
173 179 217 203 202 230 265 291 316 348 329 283 296 312 304 216 317 301 272 253 250 246 245 250 253 252 248 245 245 241 238 238 239 238 238 237 237 235 235 236 235 244 252 260 260 259 268 288 300
194 221 218 237 227 242 277 304 287 318 288 267 288 302 292 264 301 288 288 263 260 270 266 256 259 261 255 251 250 247 242 241 242 241 240 241 239 236 234 234 237 244 254 259 258 261 269 278 287
219 222 220 235 234 249 243 278 293 286 259 285 294 291 291 289 285 287 289 239 277 272 272 266 264 265 261 252 250 251 248 245 245 244 242 241 239 236 237 238 240 245 253 256 256 260 262 273 283
234 210 224 239 242 245 262 259 259 274 281 281 283 280 279 284 282 280 274 278 281 281 290 277 265 270 271 257 253 252 251 248 248 248 245 243 241 239 242 241 242 247 251 255 253 259 262 273 282
175 227 238 241 236 245 249 269 256 254 268 265 268 271 275 278 280 281 278 278 280 292 293 289 287 287 283 277 261 257 253 251 250 251 250 245 245 242 242 243 244 247 252 254 253 257 262 271 275
260 276 261 221 229 237 239 266 251 253 258 265 269 269 273 275 280 278 279 282 290 295 296 293 297 295 293 277 273 259 255 253 252 254 252 249 248 243 244 246 246 247 258 250 251 255 263 269 277
202 170 242 236 179 233 167 257 251 247 242 248 253 257 264 270 275 277 278 283 290 295 297 295 296 295 290 277 274 263 254 246 250 254 255 253 250 246 246 247 245 245 254 249 255 262 264 271 279
240 237 217 247 214 198 192 252 203 233 247 254 263 271 272 274 276 276 277 284 292 295 297 294 298 292 288 274 267 257 246 244 248 252 255 256 256 251 244 243 242 249 238 247 260 269 268 270 279
218 233 194 193 212 197 207 245 254 266 268 264 267 267 270 272 272 277 283 288 293 294 294 288 286 285 281 262 254 249 238 242 248 252 257 261 261 237 231 231 227 224 220 240 260 269 268 273 278
38 68 83 335 265 216 224 250 252 252 260 262 264 265 267 270 275 279 282 282 289 289 288 289 282 282 269 249 247 239 237 242 247 252 257 257 237 224 226 228 223 209 216 244 257 259 260 276 282
270 280 248 266 258 227 285 279 275 259 257 251 256 260 263 270 277 277 276 278 277 290 288 286 286 276 263 247 249 240 243 243 246 254 252 233 216 220 219 204 202 208 221 243 257 263 271 276 278
206 229 226 221 296 286 291 283 271 248 242 250 257 259 261 262 270 274 272 269 276 286 286 287 276 269 258 249 244 238 239 242 244 238 224 213 212 214 198 198 203 214 232 256 267 275 277 278 271
217 175 299 314 177 257 45 283 279 271 262 252 254 259 261 266 266 267 269 272 277 281 284 288 275 257 251 242 241 242 243 244 246 230 207 202 204 195 201 203 210 224 256 267 277 277 272 265 257
247 194 226 236 267 310 260 305 273 218 258 256 253 256 256 261 263 267 270 273 277 273 276 274 269 245 241 240 236 236 240 238 225 194 195 191 187 195 199 205 215 243 263 271 277 269 264 260 252
205 179 180 156 130 257 205 191 277 243 250 232 243 251 259 266 268 270 274 271 277 277 276 271 249 235 229 220 220 218 208 194 183 180 180 189 177 186 196 201 236 251 265 271 262 256 257 256 251
189 119 128 128 187 233 176 190 236 254 309 238 275 274 269 269 274 276 276 278 282 283 263 235 209 196 184 182 179 173 174 186 184 180 180 181 177 188 203 214 243 259 263 245 251 252 244 246 248
201 172 166 171 188 227 142 226 245 226 249 267 280 284 286 282 274 282 273 279 278 235 184 166 159 160 160 155 154 158 163 171 173 175 173 175 185 197 207 230 251 251 227 233 248 247 245 245 246
172 163 214 24 287 124 213 277 286 280 281 282 299 303 301 303 292 260 257 250 190 160 153 154 156 156 150 152 155 156 162 162 163 164 171 177 185 198 231 237 228 206 224 233 239 244 245 248 247
163 170 106 317 208 229 249 256 236 292 339 331 331 296 304 309 264 213 190 168 152 154 154 155 155 152 152 155 155 153 156 159 168 176 174 179 195 214 224 189 181 181 208 248 259 251 248 242 241
24 262 223 198 176 210 298 267 228 221 324 351 313 312 327 279 189 171 163 156 155 155 155 153 154 151 151 152 151 152 156 158 163 173 183 194 197 191 167 163 151 148 145 294 276 261 237 232 215
5 293 258 199 243 264 123 286 313 77 52 10 336 338 346 189 169 159 157 155 156 155 158 156 153 150 148 148 148 150 151 157 170 176 187 190 173 161 155 144 142 110 335 323 296 278 247 240 234
Height
1503 1504 1505 1508 1517 1519 1521 1508 1490 1487 1485 1480 1478 1477 1477 1479 1484 1499 1478 1483 1487 1489 1490 1491 1494 1496 1499 1501 1502 1504 1506 1506 1507 1508 1509 1511 1511 1512 1513 1514 1515 1516 1517 1518 1517 1518 1518 1519 1519
1501 1503 1505 1506 1518 1525 1514 1494 1490 1483 1480 1480 1479 1476 1476 1477 1477 1477 1479 1482 1486 1488 1489 1491 1492 1495 1499 1500 1502 1503 1505 1506 1506 1507 1508 1509 1510 1511 1512 1513 1513 1515 1516 1516 1517 1518 1518 1518 1519
1501 1503 1506 1507 1513 1519 1507 1485 1482 1477 1480 1480 1480 1478 1476 1473 1474 1476 1479 1482 1485 1487 1489 1489 1491 1495 1497 1500 1501 1503 1504 1505 1506 1507 1508 1509 1510 1511 1511 1512 1512 1513 1515 1516 1516 1516 1517 1517 1518
1498 1504 1506 1511 1508 1497 1490 1480 1480 1477 1474 1474 1475 1477 1475 1474 1474 1477 1479 1481 1484 1486 1488 1489 1491 1494 1496 1497 1499 1501 1503 1504 1505 1507 1509 1509 1510 1511 1511 1512 1511 1512 1514 1515 1515 1515 1515 1516 1517
1499 1501 1509 1512 1504 1489 1482 1481 1482 1478 1476 1471 1473 1474 1473 1474 1475 1477 1479 1480 1482 1484 1486 1487 1490 1492 1494 1495 1497 1499 1501 1503 1505 1505 1507 1509 1509 1510 1510 1511 1511 1511 1512 1513 1514 1514 1514 1514 1515
1497 1500 1512 1510 1501 1484 1479 1478 1479 1475 1472 1471 1473 1472 1472 1473 1477 1478 1480 1481 1482 1484 1485 1486 1488 1490 1492 1493 1495 1497 1499 1501 1502 1504 1505 1506 1508 1509 1509 1510 1511 1511 1511 1511 1511 1512 1512 1512 1513
1496 1501 1503 1500 1497 1487 1479 1474 1475 1473 1470 1470 1471 1473 1472 1472 1476 1478 1480 1482 1482 1483 1484 1485 1487 1488 1489 1491 1492 1494 1497 1499 1500 1501 1502 1504 1506 1507 1507 1508 1509 1510 1510 1510 1510 1510 1510 1510 1510
1492 1494 1498 1496 1494 1485 1474 1472 1469 1468 1466 1467 1469 1472 1471 1472 1476 1478 1479 1480 1481 1481 1482 1483 1484 1485 1486 1487 1488 1491 1494 1496 1496 1498 1499 1500 1501 1503 1504 1506 1507 1509 1509 1509 1509 1508 1508 1508 1508
1489 1497 1500 1490 1487 1477 1471 1473 1467 1466 1464 1466 1467 1468 1471 1473 1475 1478 1479 1479 1479 1479 1480 1481 1482 1482 1483 1484 1486 1488 1490 1492 1493 1493 1493 1495 1495 1498 1501 1503 1505 1507 1508 1508 1508 1507 1507 1507 1506
1484 1492 1486 1474 1473 1472 1469 1470 1466 1464 1464 1462 1462 1465 1470 1472 1474 1477 1476 1476 1477 1477 1477 1478 1478 1479 1480 1480 1481 1483 1485 1486 1487 1488 1489 1490 1491 1494 1497 1499 1502 1504 1505 1506 1506 1505 1505 1505 1505
1474 1473 1470 1466 1468 1470 1468 1468 1464 1462 1464 1458 1459 1460 1465 1467 1470 1472 1472 1472 1474 1475 1475 1474 1474 1475 1475 1475 1476 1477 1479 1480 1481 1481 1483 1485 1487 1489 1491 1494 1498 1500 1502 1503 1504 1503 1502 1502 1503
1472 1464 1465 1463 1467 1469 1468 1466 1460 1456 1457 1455 1456 1458 1460 1465 1467 1467 1468 1468 1470 1470 1470 1470 1470 1470 1470 1470 1470 1471 1472 1474 1474 1474 1477 1479 1480 1484 1489 1492 1494 1496 1498 1499 1501 1501 1501 1500 1500
1462 1460 1461 1462 1463 1464 1467 1460 1463 1450 1454 1453 1455 1455 1457 1458 1461 1463 1464 1465 1464 1465 1464 1464 1465 1465 1465 1465 1464 1465 1465 1466 1468 1469 1470 1473 1475 1479 1483 1490 1491 1492 1494 1495 1497 1499 1499 1498 1498
1454 1456 1459 1460 1460 1462 1463 1456 1462 1448 1453 1452 1453 1450 1450 1451 1453 1454 1456 1457 1458 1458 1457 1459 1459 1459 1458 1457 1457 1458 1459 1461 1463 1463 1464 1466 1468 1472 1479 1484 1487 1489 1490 1492 1494 1495 1496 1495 1495
1454 1457 1456 1458 1458 1460 1460 1457 1442 1447 1451 1448 1445 1444 1444 1443 1446 1447 1448 1449 1450 1450 1451 1451 1451 1450 1450 1450 1450 1450 1452 1455 1456 1456 1458 1460 1462 1469 1476 1478 1482 1485 1488 1489 1491 1492 1492 1492 1492
1453 1454 1458 1447 1454 1453 1455 1439 1429 1438 1443 1440 1438 1437 1437 1436 1437 1440 1441 1442 1443 1443 1443 1442 1442 1441 1441 1442 1443 1443 1446 1448 1449 1450 1451 1453 1458 1465 1472 1475 1480 1484 1485 1488 1488 1489 1489 1489 1488
1453 1447 1452 1450 1442 1448 1449 1423 1430 1435 1436 1432 1432 1432 1432 1430 1431 1433 1434 1435 1435 1436 1435 1434 1433 1433 1433 1434 1435 1437 1439 1442 1443 1444 1446 1449 1455 1461 1465 1468 1475 1480 1481 1484 1485 1485 1485 1485 1484
1447 1452 1444 1447 1440 1442 1444 1421 1430 1432 1432 1427 1429 1425 1423 1421 1423 1425 1426 1427 1428 1427 1427 1426 1425 1424 1425 1426 1428 1431 1433 1435 1437 1439 1442 1447 1453 1454 1459 1462 1464 1465 1477 1481 1481 1482 1482 1481 1479
1443 1445 1446 1443 1438 1439 1436 1428 1428 1428 1425 1423 1420 1419 1417 1415 1417 1418 1419 1420 1420 1420 1420 1418 1417 1417 1417 1419 1421 1423 1426 1429 1432 1434 1439 1444 1448 1451 1454 1460 1465 1463 1470 1476 1478 1477 1477 1476 1475
1444 1446 1448 1443 1437 1439 1437 1433 1427 1425 1419 1416 1413 1411 1410 1409 1410 1411 1410 1412 1413 1414 1413 1413 1412 1412 1412 1414 1416 1418 1422 1424 1427 1433 1437 1441 1445 1448 1452 1456 1459 1463 1467 1471 1472 1472 1472 1472 1471
1441 1445 1446 1447 1437 1433 1437 1424 1420 1413 1408 1406 1404 1404 1403 1402 1402 1401 1402 1404 1406 1407 1406 1406 1405 1405 1407 1409 1411 1414 1416 1420 1424 1428 1433 1437 1442 1447 1451 1455 1458 1461 1464 1467 1468 1468 1468 1468 1468
1446 1438 1438 1439 1444 1449 1434 1435 1414 1408 1402 1400 1399 1395 1393 1395 1394 1394 1395 1397 1398 1399 1399 1399 1397 1397 1400 1403 1407 1409 1412 1416 1420 1424 1430 1436 1441 1446 1450 1453 1456 1459 1462 1463 1464 1463 1463 1463 1464
1436 1435 1440 1442 1445 1445 1439 1448 1394 1395 1395 1393 1390 1385 1385 1383 1384 1385 1388 1390 1390 1391 1390 1391 1391 1392 1395 1399 1402 1406 1410 1413 1418 1423 1429 1435 1440 1445 1448 1452 1455 1458 1459 1459 1460 1459 1460 1460 1461
1428 1432 1438 1441 1447 1454 1437 1445 1393 1396 1385 1384 1380 1378 1378 1378 1378 1378 1380 1381 1383 1382 1382 1382 1383 1386 1391 1396 1400 1404 1407 1411 1416 1422 1429 1435 1439 1443 1447 1450 1453 1454 1455 1456 1456 1456 1457 1458 1458
1428 1436 1456 1460 1460 1440 1422 1437 1390 1382 1380 1379 1379 1374 1374 1372 1372 1373 1373 1375 1376 1374 1374 1375 1379 1383 1389 1395 1399 1403 1406 1412 1418 1423 1428 1433 1437 1442 1445 1448 1450 1451 1452 1453 1454 1454 1455 1455 1456
1428 1430 1442 1439 1441 1430 1418 1420 1393 1376 1371 1369 1372 1372 1369 1366 1366 1365 1368 1370 1369 1370 1372 1375 1379 1384 1390 1395 1399 1404 1408 1414 1420 1424 1428 1433 1437 1441 1443 1445 1447 1448 1450 1451 1452 1452 1453 1454 1455
1421 1429 1419 1427 1424 1430 1418 1396 1384 1371 1371 1370 1371 1368 1364 1360 1358 1360 1363 1365 1367 1370 1374 1378 1381 1386 1391 1396 1401 1405 1410 1416 1421 1426 1430 1434 1437 1440 1442 1444 1445 1446 1447 1449 1450 1451 1452 1452 1453
1413 1413 1426 1433 1429 1427 1410 1400 1391 1376 1378 1373 1371 1367 1358 1354 1353 1356 1360 1364 1369 1373 1377 1380 1384 1387 1393 1398 1403 1408 1413 1418 1422 1426 1430 1433 1436 1438 1440 1442 1444 1445 1447 1447 1448 1449 1449 1449 1450
1416 1416 1417 1421 1424 1418 1411 1400 1376 1370 1373 1375 1372 1364 1356 1349 1352 1355 1360 1365 1370 1375 1379 1382 1386 1390 1395 1401 1405 1410 1414 1419 1424 1427 1430 1433 1435 1437 1439 1442 1444 1445 1446 1446 1446 1446 1446 1445 1446
1417 1416 1416 1423 1414 1413 1418 1406 1369 1372 1372 1372 1369 1363 1356 1353 1354 1355 1360 1365 1370 1375 1380 1384 1388 1393 1399 1404 1408 1412 1416 1421 1424 1427 1429 1432 1434 1437 1440 1442 1444 1444 1445 1444 1444 1443 1442 1442 1443